EHI
0 0 0 0 0 0 0 0 1 1 0 0 0 1 0 0 0 0 0 1 1 1 0 0 0 0 0 0 1 2 1 0 0 0 1 2 3 3 2 1 0 1 3
0 0 0 0 0 0 0 0 1 1 0 0 0 1 1 1 1 1 1 1 0 0 0 0 1 1 0 0 1 2 1 0 0 0 0 1 2 3 3 2 1 1 2
0 0 0 0 0 0 0 0 1 1 0 0 0 0 1 1 2 3 3 1 0 0 0 1 2 2 1 1 1 2 1 0 0 0 0 0 1 3 3 3 2 1 2
0 0 0 0 0 0 0 0 0 0 0 0 0 0 0 1 2 3 3 2 0 0 0 1 2 2 2 1 1 1 1 0 0 0 0 0 1 2 3 3 3 3 3
0 0 0 0 0 0 0 0 0 0 0 0 0 0 0 0 1 2 2 1 0 0 0 1 1 1 1 1 0 0 1 1 1 0 0 0 1 2 3 3 4 4 3
0 0 0 0 0 0 0 0 0 0 0 0 0 0 0 0 0 1 1 1 0 0 0 0 0 1 1 0 0 0 1 1 1 0 0 0 0 1 3 4 5 5 3
0 0 0 0 0 0 0 0 0 0 0 0 0 0 0 0 0 0 0 0 0 0 0 0 1 2 2 1 1 1 1 1 1 0 0 0 1 1 3 5 6 5 3
1 1 0 0 0 0 0 0 0 0 0 0 0 0 0 0 0 0 0 0 0 0 0 0 1 2 3 2 2 2 2 2 1 0 0 1 2 2 3 5 6 5 2
0 0 0 0 0 0 0 0 0 0 0 0 0 0 0 0 0 0 0 0 0 0 0 1 2 2 2 3 3 2 2 2 1 0 1 2 3 3 3 5 6 4 2
0 0 0 0 0 0 0 0 0 0 0 0 0 0 0 0 0 1 1 1 0 0 1 2 2 2 2 3 2 1 1 1 1 1 1 3 3 3 4 6 6 4 4
0 0 0 0 0 0 0 0 0 0 0 0 0 0 0 0 0 1 2 1 1 1 2 3 2 1 2 2 1 0 0 0 0 1 2 3 3 2 3 5 6 6 5
0 0 0 0 0 0 0 0 0 0 0 0 0 0 0 0 0 1 1 1 1 1 2 2 1 0 1 1 0 0 0 0 0 0 1 3 2 1 2 4 5 5 4
1 1 1 1 0 1 1 0 0 0 0 0 0 0 0 0 0 0 0 0 0 1 1 1 0 0 0 0 0 0 0 0 0 0 0 1 1 1 1 2 3 2 3
2 2 2 2 2 2 2 1 0 0 0 0 0 0 0 0 0 0 0 0 0 0 0 0 0 0 0 0 0 0 0 0 0 0 0 0 1 2 2 2 1 1 2
2 2 2 2 2 2 2 1 0 0 0 0 0 0 0 0 0 0 0 0 0 0 0 0 0 0 0 0 0 0 0 0 0 0 0 0 1 3 4 2 1 0 1
1 1 1 1 1 1 1 0 0 0 0 0 0 0 0 0 0 0 0 0 0 0 0 0 0 0 0 0 0 0 0 0 0 0 0 0 0 2 3 2 1 0 1
0 0 0 0 0 0 0 0 0 0 0 0 0 0 0 0 0 0 0 0 0 0 0 0 0 0 0 0 0 0 0 0 0 0 0 0 0 0 1 1 0 1 2
0 0 0 0 0 0 0 0 0 0 0 0 0 0 0 0 0 0 0 0 0 0 0 0 0 0 0 0 0 0 0 0 0 0 0 0 0 0 0 0 0 1 2
0 0 0 0 1 1 0 0 0 0 0 0 0 0 0 0 0 0 0 0 0 0 0 0 0 0 0 0 0 0 0 0 0 0 0 0 0 0 0 0 0 0 1
0 0 0 0 1 2 1 0 0 0 0 0 0 0 0 0 0 0 0 0 0 0 0 0 0 0 0 0 0 0 0 0 0 0 0 0 0 0 0 0 0 0 0
0 0 0 0 1 2 1 1 0 0 0 0 0 0 0 0 0 0 0 0 1 1 0 0 0 0 0 0 0 0 0 0 0 0 0 0 0 0 0 0 0 0 0
1 1 1 1 1 1 1 1 0 0 0 0 0 0 0 0 0 0 0 1 2 2 1 0 0 0 0 0 0 0 0 0 0 0 0 0 0 0 0 0 0 0 0
5 5 4 2 1 1 1 1 1 0 0 0 0 0 0 0 0 0 0 1 2 3 1 1 1 0 0 0 0 0 0 0 0 0 0 0 0 0 0 0 0 0 0
8 7 5 3 1 1 1 1 1 0 0 0 0 0 0 0 0 0 0 1 2 3 3 2 2 1 0 0 0 0 0 0 0 0 0 0 0 0 0 0 0 0 0
9 8 5 3 2 2 2 1 1 0 0 0 0 0 0 0 0 0 0 0 1 2 3 3 3 2 1 0 0 0 0 0 0 0 0 0 0 0 0 0 0 0 0
10 7 6 4 3 3 3 2 1 0 0 0 0 0 0 0 0 1 1 1 0 1 3 3 3 3 2 1 0 0 0 0 0 0 0 0 0 0 0 0 0 0 0
Wind_Speed
6 8 10 10 10 10 10 10 10 10 10 10 10 10 10 11 11 10 10 9 9 9 9 9 9 9 9 8 8 7 7 7 7 7 7 7 7 7 7 7 7 5 8
7 8 10 10 10 9 9 10 10 10 11 10 10 10 11 11 11 11 11 10 9 9 9 9 9 9 8 8 8 7 6 6 6 6 7 7 8 8 8 8 7 6 9
8 8 9 10 10 10 10 11 11 11 11 11 11 11 11 11 11 11 11 11 10 10 10 10 9 9 9 9 8 7 6 6 5 5 5 4 6 8 8 8 8 8 8
8 9 9 10 10 10 11 11 11 11 11 11 11 11 11 11 11 11 11 11 11 11 11 11 10 10 9 9 8 8 7 6 5 5 4 4 5 9 9 8 8 8 8
9 9 9 10 10 10 10 11 11 11 12 11 11 11 11 11 10 11 11 11 11 11 11 11 11 10 10 9 8 8 7 6 6 5 5 5 4 8 9 9 8 9 8
9 10 8 10 10 10 10 11 11 11 12 12 11 11 11 10 11 11 11 11 11 11 11 11 10 10 10 9 8 8 8 8 6 4 5 5 4 8 9 9 9 9 9
8 9 9 10 10 10 10 10 11 11 11 11 12 12 11 11 10 10 10 10 10 11 11 10 10 10 9 9 8 7 6 7 4 4 5 5 6 9 9 9 9 9 10
8 9 9 9 10 10 10 10 10 10 11 11 11 11 11 10 9 9 10 11 11 10 10 9 9 9 8 8 7 7 7 6 5 6 5 5 8 9 9 9 9 10 10
6 6 7 7 8 9 10 9 9 9 10 10 10 9 9 10 11 12 12 12 11 11 10 10 10 8 8 7 7 7 6 7 4 4 5 4 8 9 10 10 10 10 10
5 4 5 6 7 6 6 8 8 8 8 8 7 7 8 10 13 14 13 12 12 11 10 10 9 8 7 7 6 6 6 5 4 4 3 6 9 9 10 10 11 10 11
5 4 4 5 6 5 6 7 6 6 5 5 4 4 5 4 6 8 12 11 11 10 9 9 8 6 6 5 5 5 5 3 5 4 4 9 11 11 11 11 11 11 11
4 4 4 4 5 5 5 4 3 3 3 2 3 3 3 4 5 7 9 9 9 8 7 6 5 4 2 2 3 3 3 4 4 4 6 12 12 12 12 11 11 11 10
5 4 4 4 4 5 4 3 2 2 1 2 3 4 3 3 3 4 2 3 3 4 2 3 2 2 3 3 3 4 4 5 4 5 6 12 12 11 11 10 10 10 10
5 4 4 4 4 5 4 3 3 2 1 2 2 4 4 3 3 3 2 2 2 2 3 2 2 4 5 5 5 5 6 4 4 4 6 12 11 10 10 10 10 10 10
5 4 4 4 4 4 4 2 3 3 2 3 2 3 4 3 3 3 3 3 3 2 2 3 4 5 5 5 5 6 6 6 6 5 4 10 11 11 10 9 10 9 9
5 4 4 4 4 4 4 3 3 3 3 3 2 3 4 3 3 3 3 3 3 3 3 3 4 4 4 4 5 5 5 5 5 4 4 6 10 10 11 10 9 9 9
5 5 4 4 4 4 4 4 3 3 3 2 2 3 4 4 4 3 3 3 3 3 4 4 4 3 3 4 4 4 4 4 4 4 4 4 4 8 10 11 10 10 10
5 5 5 4 4 4 4 4 3 3 3 3 3 3 3 4 5 4 3 3 3 3 3 3 3 3 3 3 3 3 3 3 4 4 4 4 3 4 6 10 9 9 9
5 6 5 4 4 4 4 3 3 3 3 2 2 2 3 4 5 4 3 2 3 3 3 3 3 3 3 3 2 2 2 2 2 3 4 4 4 4 3 6 9 9 9
4 5 5 4 4 4 3 3 3 3 3 2 2 2 4 3 4 3 2 3 4 3 3 3 3 2 2 1 2 2 2 2 2 3 3 3 3 4 4 4 4 5 8
4 5 5 4 3 3 2 2 2 2 2 2 2 3 3 3 3 3 3 3 3 3 2 3 2 2 1 1 2 2 2 2 3 2 2 2 3 3 3 4 3 3 3
5 5 4 4 4 4 2 2 2 2 2 2 2 2 3 3 3 3 3 3 3 2 3 3 3 2 2 2 1 1 1 2 2 2 2 2 2 2 3 3 3 3 3
5 5 5 5 4 4 4 2 2 2 2 2 2 1 2 2 3 3 3 3 2 2 2 2 2 2 2 2 2 1 1 1 1 1 2 2 2 2 2 2 3 3 4
5 4 5 5 4 4 4 2 2 2 1 1 1 1 1 1 2 2 2 2 2 2 2 1 2 1 2 2 2 2 1 1 1 1 2 2 2 2 2 2 3 2 3
6 4 4 5 4 4 3 3 2 2 1 1 1 2 1 1 1 2 1 1 1 2 1 2 2 2 1 1 1 1 2 1 0 2 0 0 1 1 2 2 2 2 3
6 5 4 4 4 3 3 3 3 2 2 1 1 1 1 1 1 1 1 1 0 1 1 1 1 1 1 1 1 1 1 1 1 1 1 1 0 0 1 2 2 2 2
Wind_Direction
74 75 57 49 48 47 48 50 51 52 53 54 53 55 54 57 59 60 65 70 77 80 80 81 81 78 76 75 76 80 82 90 97 100 100 100 100 97 97 105 104 96 95
85 83 65 55 50 49 52 53 53 54 54 55 55 54 57 61 63 62 64 71 78 78 78 79 79 78 76 76 76 76 78 88 100 102 101 100 98 98 96 95 97 93 96
84 86 72 57 53 52 56 57 58 58 58 57 58 57 58 60 60 60 63 69 75 77 77 76 76 76 74 71 67 68 73 80 88 92 98 103 99 99 98 96 97 96 97
80 76 69 63 58 58 60 60 59 59 59 59 61 61 59 61 61 62 64 68 72 73 73 72 70 71 69 68 65 64 68 73 70 75 80 87 93 97 95 94 96 95 96
82 82 76 69 67 65 65 64 60 59 59 59 59 60 61 62 65 67 70 73 75 75 74 72 71 69 66 64 64 62 61 59 57 65 78 79 81 94 95 91 91 92 93
91 91 84 76 72 71 69 67 63 63 62 61 60 61 61 63 66 71 74 76 79 80 78 75 75 73 68 62 58 55 54 54 52 63 73 75 80 91 94 90 90 89 90
96 99 97 87 82 78 75 73 70 67 64 63 62 62 62 64 66 72 79 80 80 80 80 77 77 74 69 63 55 48 52 56 62 68 74 78 83 91 95 93 91 88 88
101 104 110 103 93 88 85 80 75 72 68 66 64 63 63 62 66 80 85 80 77 77 78 78 78 74 70 63 54 47 50 57 65 80 80 80 87 88 94 97 95 93 91
96 109 122 124 109 99 94 87 80 78 73 70 67 64 65 64 77 87 83 78 77 77 76 76 75 74 69 64 56 51 53 54 53 66 78 80 88 92 96 100 98 96 94
94 101 111 122 123 120 112 100 92 87 82 79 76 70 67 69 79 85 81 77 76 76 75 74 73 74 72 66 59 53 56 50 66 67 75 87 91 93 98 99 98 96 93
96 95 96 103 110 117 114 108 115 110 96 93 91 84 75 66 76 80 81 81 79 78 78 78 74 74 77 69 60 56 52 58 67 69 75 87 91 93 94 95 97 95 93
109 104 100 98 104 104 101 109 120 104 103 88 83 83 70 60 67 81 88 88 86 84 79 76 70 67 66 72 65 57 56 61 66 74 81 87 90 94 96 95 96 95 93
106 98 100 102 107 105 99 104 81 79 77 59 59 81 75 74 80 88 97 93 90 93 78 70 56 60 66 65 62 63 63 63 62 69 80 85 87 91 96 98 98 95 94
98 94 91 87 90 98 99 100 100 90 76 71 43 66 68 60 57 63 71 78 74 62 56 52 55 52 55 59 66 66 63 67 71 74 80 84 85 88 92 96 97 94 93
102 96 88 78 76 79 84 89 95 87 66 74 56 63 80 72 63 61 60 57 57 53 55 44 51 51 51 50 58 64 64 68 73 75 83 85 85 84 86 95 97 96 95
114 102 94 91 85 85 86 81 77 81 70 61 49 55 77 74 68 61 61 58 50 43 46 52 59 58 54 54 56 59 61 63 73 82 87 83 82 83 83 85 93 93 91
121 111 98 95 87 83 82 77 76 72 78 69 51 53 71 77 81 73 60 60 51 47 45 43 48 57 65 64 57 56 64 63 65 77 85 87 82 80 82 84 85 86 86
125 118 108 105 93 86 84 78 73 66 67 62 51 41 62 73 75 70 64 61 57 53 52 48 42 44 51 55 54 46 55 64 70 76 80 86 88 86 79 82 84 85 85
123 119 116 105 104 98 96 89 75 75 71 65 60 44 41 59 72 75 68 64 62 54 50 53 49 42 47 51 64 63 49 49 57 70 78 81 82 93 95 89 85 79 82
121 120 118 108 105 100 97 92 77 73 67 58 55 54 49 51 67 72 73 64 62 59 54 54 55 47 45 41 55 75 81 73 64 58 63 72 75 90 99 97 90 77 77
122 118 119 120 118 107 93 90 89 87 86 71 54 56 56 56 70 76 66 63 62 60 63 66 57 41 33 40 49 47 49 79 93 80 61 65 65 71 83 89 93 91 80
138 131 127 121 115 105 97 102 115 108 106 106 76 57 48 56 63 79 84 80 73 57 43 50 49 25 13 35 62 65 47 20 35 84 93 77 67 71 72 80 87 87 89
147 145 142 142 133 125 120 104 93 81 70 79 86 70 36 52 62 56 77 83 97 90 75 57 52 46 16 360 34 72 94 79 8 7 71 85 85 80 75 77 84 85 91
148 144 144 140 134 127 129 120 128 125 118 132 130 122 112 71 82 66 62 87 105 102 104 104 82 52 51 14 3 14 61 131 127 28 8 46 84 97 94 85 85 86 87
149 149 151 139 137 138 136 134 134 119 132 119 108 130 128 105 93 93 69 58 80 97 103 75 75 51 58 52 22 3 3 353 45 129 129 21 24 53 93 96 96 90 89
147 147 143 138 142 141 145 152 151 140 142 131 131 123 118 116 96 96 96 70 89 116 125 110 108 98 75 52 13 29 35 22 3 76 116 143 111 333 69 91 90 89 90